Regional Weather Roundup
Issued by NWS Cleveland, OH

Home | Current Version | Previous Version | Text Only | Print | Product List | Glossary On
Versions: 1 2 3 4 5 6 7 8 9 10 11 12 13 14 15 16 17 18 19 20 21 22 23 24 25 26 27 28 29 30 31 32 33 34 35 36 37 38 39 40 41 42 43 44 45 46 47 48 49 50
000
ASUS41 KCLE 262212
RWRCLE
OHIO REGIONAL WEATHER ROUNDUP
NATIONAL WEATHER SERVICE WILMINGTON, OH
500 PM EST SUN FEB 26 2017

NOTE: "FAIR" INDICATES FEW OR NO CLOUDS BELOW 12,000 FEET WITH NO
SIGNIFICANT WEATHER AND/OR OBSTRUCTIONS TO VISIBILITY.

OHZ001>008-015>018-024>027-034-035-043-044-262300-
   NORTHWEST OHIO

CITY           SKY/WX    TMP DP  RH WIND       PRES   REMARKS
DEFIANCE       FAIR      42  20  41 SW17G26   30.04R
FINDLAY        FAIR      44  21  40 S22       30.06S
TOLEDO EXPRESS FAIR      42  17  36 SW23G33   30.02S
TOLEDO EXEC    FAIR      44  19  36 SW17G31   30.04S
LIMA           FAIR      43  21  41 S18G25    30.07S
$$

OHZ009>014-019>023-028>033-038-089-262300-
   NORTHEAST OHIO

CITY           SKY/WX    TMP DP  RH WIND       PRES   REMARKS
CLE-HOPKINS    FAIR      42  17  36 SW14      30.09S
CLE-LAKEFRONT  FAIR      42  16  34 SW17G25   30.07S
CUY CO. ARPT   SUNNY     43  19  39 SW16      30.07F
LORAIN-ELYRIA  FAIR      40  18  41 SW21      30.08S
ASHTABULA      FAIR      37  17  44 S16       30.08S
AKRON-CANTON   FAIR      40  16  37 SW15      30.10R
WOOSTER        FAIR      39  19  44 SW15      30.10R
MANSFIELD      FAIR      39  20  46 SW16      30.08S
YOUNGSTOWN     FAIR      38  17  42 SW10G20   30.09R
$$

OHZ042-051>053-060>062-070>072-077>081-262300-
  SOUTHWEST OHIO

CITY           SKY/WX    TMP DP  RH WIND       PRES   REMARKS
CINC-COVINGTON PTSUNNY   46  13  26 SW7       30.14S
CINC-LUNKEN    FAIR      47  17  30 S14       30.16S
HAMILTON       FAIR      48  15  26 S12G17    30.15S
DAYTON         PTSUNNY   42  16  34 SW18      30.12S
WRIGHT-PAT AFB FAIR      44  13  27 SW15      30.13R
DAYTON GENERAL FAIR      44  13  28 SW9       30.12S
WILMINGTON     FAIR      43  17  35 S13       30.14R
$$

OHZ036-037-039>041-045>050-054>059-063>069-073>076-082>088-262300-
  CENTRAL AND SOUTHEAST OHIO

CITY           SKY/WX    TMP DP  RH WIND       PRES   REMARKS
COLUMBUS       FAIR      45  16  31 SW15      30.14S
OSU AIRPORT    FAIR      42  19  39 S13       30.13S
BOLTON FIELD   SUNNY     43  19  39 SW17      30.15S
RICKENBACK AFB FAIR      42  17  36 SW10      30.15S
NEWARK         FAIR      42  18  37 SW12      30.14S
MARION         FAIR      41  17  38 SW15      30.10F
LANCASTER      FAIR      44  17  33 SW9       30.16S
ZANESVILLE     FAIR      43  14  31 SW8       30.15R
NEW PHILLY     FAIR      41  18  39 SW9       30.14R
$$



USA.gov is the U.S. government's official web portal to all federal, state and local government web resources and services.